[[{"header":{"parameterUnit":"m.s-1","parameterCategory":1,"la1":30.2991,"la2":30.254,"lo1":-89.0895,"lo2":-89.0444,"dy":0.0017,"dx":0.0017,"nx":28,"ny":28,"refTime":"2023-03-29T21:00:00:Z","depth":0,"parameterNumber":2,"parameterNumberName":"U-component_of_WINDS"},"data":[0,0,0,0,0,0,0,0,0,0,0,0,0,0,0,0,0,0,0,0,0,0,0,0,0,0,0,0,0,0,0,0,0,0,0,0,0,0,0,0,0,0,0,0,0,0,0,0,0,0,0,0,0,0,0,0,0,0,-4.6715,-4.6716,0,-4.6766,-4.6766,-4.6767,-4.6672,-4.6669,-4.6666,-4.6663,-4.6716,-4.672,-4.6724,0,0,0,0,0,0,0,0,0,0,0,0,0,-4.6537,-4.6541,-4.6715,-4.6716,-4.6716,-4.6766,-4.6766,-4.6767,-4.6672,-4.6669,-4.6665,-4.6661,-4.6714,-4.672,-4.6725,0,0,0,0,0,0,0,0,0,0,0,0,0,-4.6604,-4.6542,-4.6715,-4.6675,-4.6672,-4.6766,-4.6766,-4.6767,-4.6673,-4.6669,-4.6664,-4.6659,-4.6713,-4.6719,-4.6726,-4.6861,0,0,-4.6746,-4.6748,0,0,0,0,0,0,0,0,-4.66,-4.661,-4.668,-4.6678,-4.6675,-4.6708,-4.6723,-4.6799,-4.6674,-4.6673,-4.6663,-4.6657,-4.6717,-4.6723,-4.6743,-4.6863,-4.6866,-4.6746,-4.675,-4.6753,-4.6755,0,0,0,0,0,0,0,-4.6596,-4.6608,-4.6735,-4.6681,-4.6678,-4.6655,-4.6659,-4.6737,-4.6721,-4.6673,-4.6666,-4.6673,-4.6715,-4.6737,-4.6743,-4.6866,-4.6746,-4.6752,-4.6756,-4.6758,-4.7101,-4.7106,0,0,0,0,0,0,-4.6596,-4.6604,-4.6733,-4.6737,-4.6625,-4.6662,-4.6667,-4.6702,-4.672,-4.6718,-4.6677,-4.6668,-4.6728,-4.6736,-4.6745,-4.6906,-4.6753,-4.6759,-4.6763,-4.7096,-4.7103,-4.7108,0,0,0,0,0,0,-4.6592,-4.6608,-4.6731,-4.6669,-4.6683,-4.667,-4.671,-4.6705,-4.6727,-4.6723,-4.672,-4.6703,-4.6725,-4.6736,-4.6833,-4.6906,-4.6762,-4.6768,-4.709,-4.7098,-4.7105,-4.7228,0,0,0,0,0,0,-4.6588,-4.6608,-4.6659,-4.6671,-4.6686,-4.6819,-4.6715,-4.671,-4.6739,-4.6728,-4.6746,-4.6745,-4.6722,-4.6824,-4.684,-4.6913,-4.6773,-4.7084,-4.7094,-4.7103,-4.7217,-4.7239,-4.7257,0,0,0,0,0,-4.6582,-4.6691,-4.6662,-4.6678,-4.675,-4.6823,-4.6832,-4.6803,-4.6745,-4.6797,-4.6794,-4.6744,-4.6895,-4.6834,-4.6851,-4.6928,-4.7079,-4.7091,-4.7102,-4.7208,-4.7235,-4.7257,0,0,0,0,0,0,-4.6689,-4.6692,-4.6659,-4.6776,-4.68,-4.6807,-4.6871,-4.6832,-4.6873,-4.6861,-4.6823,-4.6828,-4.6933,-4.6939,-4.6872,-4.706,-4.6977,-4.6993,-4.7052,-4.7077,-4.7097,-4.7094,-4.6778,0,0,0,0,0,-4.6726,-4.6785,-4.6784,-4.6887,-4.6901,-4.6884,-4.6915,-4.689,-4.6914,-4.6923,-4.6928,-4.6953,-4.7005,-4.7041,-4.709,-4.7217,-4.722,-4.7278,-4.7298,-4.7314,-4.7329,-4.7398,-4.7424,-4.7146,-4.7146,-4.7146,0,0,-4.6803,-4.6812,-4.6852,-4.6909,-4.6925,-4.6987,-4.6893,-4.6963,-4.7009,-4.6934,-4.7026,-4.703,-4.7056,-4.7169,-4.7219,-4.7178,-4.7406,-4.7329,-4.7342,-4.7348,-4.7413,-4.7439,-4.7462,-4.7154,-4.7153,-4.7152,0,0,-4.6977,-4.6989,-4.7077,-4.7094,-4.7119,-4.7107,-4.7128,-4.7141,-4.7141,-4.7233,-4.7178,-4.7232,-4.7324,-4.7344,-4.7367,-4.7548,-4.7505,-4.7565,-4.7671,-4.7738,-4.776,-4.7779,-4.7846,-4.787,-4.7579,-4.7579,-4.758,0,-4.707,-4.7162,-4.7127,-4.7201,-4.7228,-4.7162,-4.7251,-4.727,-4.7309,-4.733,-4.7282,-4.7397,-4.7409,-4.7527,-4.7571,-4.7591,-4.7615,-4.7564,-4.776,-4.7779,-4.7796,-4.7859,-4.7884,-4.7587,-4.7586,-4.7585,-4.7584,0,-4.7276,-4.734,-4.7408,-4.7448,-4.7482,-4.7564,-4.7542,-4.7581,-4.7553,-4.7546,-4.7641,-4.7653,-4.7704,-4.7729,-4.7703,-4.7844,-4.7817,-4.7766,-4.7682,-4.783,-4.7889,-4.7912,-4.7597,-4.7594,-4.7592,-4.759,0,0,-4.752,-4.7539,-4.7565,-4.7582,-4.7605,-4.7654,-4.7732,-4.7781,-4.7816,-4.7845,-4.7911,-4.799,-4.7942,-4.7968,-4.7942,-4.8002,-4.8146,-4.7942,-4.7943,-4.7982,-4.8304,-4.8345,-4.8373,-4.8117,-4.8121,-4.8125,-4.8303,0,-4.7693,-4.7828,-4.7799,-4.7932,-4.7991,-4.7929,-4.7997,-4.8019,-4.8014,-4.8065,-4.8059,-4.8117,-4.8048,-4.8064,-4.8119,-4.8117,-4.8211,-4.8103,-4.8179,-4.8182,-4.8176,-4.8403,-4.8446,-4.8614,-4.8325,-4.8329,-4.8332,0,-4.7914,-4.7952,-4.8091,-4.8104,-4.8128,-4.819,-4.8232,-4.8281,-4.8304,-4.8296,-4.8325,-4.8289,-4.8367,-4.8281,-4.8389,-4.8317,-4.8345,-4.8349,-4.8355,-4.8362,-4.8267,-4.8419,-4.8666,-4.8692,-4.8367,-4.8364,-4.8362,0,-4.808,-4.8166,-4.826,-4.8277,-4.8294,-4.8339,-4.8349,-4.8367,-4.8398,-4.8435,-4.8455,-4.8501,-4.8527,-4.8564,-4.8541,-4.848,-4.8653,-4.8565,-4.8651,-4.8652,-4.8692,-4.869,-4.8949,-4.8707,-4.8707,-4.8706,-4.8706,0,-4.8278,-4.8366,-4.8335,-4.8394,-4.849,-4.8455,-4.8552,-4.8554,-4.8571,-4.8629,-4.8577,-4.8633,-4.8599,-4.8652,-4.8634,-4.8727,-4.8738,-4.8735,-4.873,-4.8741,-4.8742,-4.8761,-4.875,-4.8713,-4.8711,-4.871,-4.8709,0,-4.8482,-4.8464,-4.8563,-4.8571,-4.8575,-4.8646,-4.8653,-4.8708,-4.8699,-4.8773,-4.8788,-4.8775,-4.8835,-4.8815,-4.8879,-4.8868,-4.8986,-4.8965,-4.8979,-4.8974,-4.9061,-4.9054,-4.9344,-4.9381,-4.9113,-4.9116,-4.9118,0,-4.861,-4.8676,-4.8692,-4.8727,-4.874,-4.8797,-4.8828,-4.8797,-4.8832,-4.8863,-4.8914,-4.8969,-4.9012,-4.911,-4.9107,-4.9156,-4.9136,-4.9234,-4.9144,-4.9153,-4.914,-4.9137,-4.9145,-4.9253,-4.9256,-4.9259,-4.9261,0,-4.8841,-4.8829,-4.8877,-4.8922,-4.8961,-4.8995,-4.9024,-4.9056,-4.9026,-4.9068,-4.9129,-4.9162,-4.9227,-4.9283,-4.9327,-4.9337,-4.9295,-4.9289,-4.9312,-4.9325,-4.9331,-4.9331,-4.9031,-4.9283,-4.9281,-4.9279,-4.9278,-4.9277,-4.9012,-4.9068,-4.9088,-4.9143,-4.9162,-4.919,-4.9242,-4.924,-4.929,-4.934,-4.9318,-4.9388,-4.941,-4.9465,-4.948,-4.9535,-4.9497,-4.953,-4.9538,-4.9548,-4.956,-4.9321,-4.9543,-4.9542,-4.9541,-4.9541,-4.954,0,-4.9242,-4.9251,-4.9302,-4.9345,-4.9389,-4.9344,-4.9374,-4.9413,-4.9476,-4.9499,-4.9542,-4.9612,-4.9665,-4.9666,-4.9716,-4.976,-4.9742,-4.9774,-4.9772,-4.9775,-4.9589,-4.9566,-4.9788,-4.9788,-4.9788,-4.9788,-4.9788,-4.9788,-4.9367,-4.946,-4.9451,-4.9553,-4.9561,-4.9629,-4.9651,-4.9677,-4.9696,-4.9776,-4.982,-4.982,-4.9834,-4.9885,-4.9933,-4.9931,-4.9953,-4.9994,-4.9985,-4.9813,-4.9788,-4.9765,-4.9742,-4.9998,-4.9998,-5.0167,-5.0168,-5.0169]},{"header":{"parameterUnit":"m.s-1","parameterCategory":1,"la1":30.2991,"la2":30.254,"lo1":-89.0895,"lo2":-89.0444,"dy":0.0017,"dx":0.0017,"nx":28,"ny":28,"refTime":"2023-03-29T21:00:00:Z","depth":0,"parameterNumber":3,"parameterNumberName":"V-component_of_WINDS"},"data":[0,0,0,0,0,0,0,0,0,0,0,0,0,0,0,0,0,0,0,0,0,0,0,0,0,0,0,0,0,0,0,0,0,0,0,0,0,0,0,0,0,0,0,0,0,0,0,0,0,0,0,0,0,0,0,0,0,0,-5.1059,-5.1059,0,-5.106,-5.1061,-5.1061,-5.0993,-5.0991,-5.0989,-5.0987,-5.0988,-5.099,-5.0992,0,0,0,0,0,0,0,0,0,0,0,0,0,-5.0996,-5.0997,-5.1059,-5.1059,-5.1059,-5.106,-5.1061,-5.1061,-5.0993,-5.0991,-5.0989,-5.0986,-5.0988,-5.099,-5.0992,0,0,0,0,0,0,0,0,0,0,0,0,0,-5.1013,-5.0998,-5.1059,-5.1025,-5.1022,-5.106,-5.1061,-5.1061,-5.0993,-5.0991,-5.0988,-5.0985,-5.0987,-5.099,-5.0992,-5.1062,0,0,-5.1,-5.1001,0,0,0,0,0,0,0,0,-5.1012,-5.1015,-5.103,-5.1028,-5.1024,-5.1024,-5.1038,-5.1061,-5.0994,-5.1004,-5.0987,-5.0984,-5.1002,-5.1003,-5.101,-5.1062,-5.1062,-5.1,-5.1002,-5.1003,-5.1004,0,0,0,0,0,0,0,-5.1011,-5.1015,-5.1059,-5.1031,-5.1027,-5.101,-5.1009,-5.1042,-5.1018,-5.1003,-5.0998,-5.1,-5.1,-5.1007,-5.1009,-5.1062,-5.1,-5.1002,-5.1004,-5.1005,-5.1171,-5.1174,0,0,0,0,0,0,-5.1014,-5.1014,-5.1059,-5.1059,-5.1011,-5.1013,-5.1012,-5.1027,-5.1018,-5.1014,-5.1002,-5.0996,-5.1004,-5.1006,-5.1009,-5.109,-5.1003,-5.1005,-5.1007,-5.1169,-5.1172,-5.1175,0,0,0,0,0,0,-5.1013,-5.1019,-5.1059,-5.1036,-5.1039,-5.1017,-5.1033,-5.1028,-5.1035,-5.1017,-5.1012,-5.1014,-5.1002,-5.1005,-5.1049,-5.1089,-5.1006,-5.1009,-5.1165,-5.117,-5.1174,-5.1252,0,0,0,0,0,0,-5.1012,-5.1019,-5.1046,-5.1037,-5.1041,-5.11,-5.1036,-5.103,-5.104,-5.1033,-5.1027,-5.1023,-5.1,-5.1046,-5.1052,-5.1091,-5.1011,-5.1161,-5.1167,-5.1172,-5.1246,-5.1259,-5.127,0,0,0,0,0,-5.101,-5.1068,-5.1048,-5.1053,-5.1074,-5.1103,-5.1105,-5.1078,-5.1043,-5.107,-5.1058,-5.1023,-5.1084,-5.1051,-5.1057,-5.1097,-5.1159,-5.1166,-5.1172,-5.1241,-5.1256,-5.127,0,0,0,0,0,0,-5.1082,-5.1066,-5.1043,-5.11,-5.1104,-5.1091,-5.1124,-5.1095,-5.1108,-5.1101,-5.1066,-5.1065,-5.1115,-5.111,-5.1074,-5.1164,-5.1115,-5.1123,-5.1165,-5.118,-5.1192,-5.1192,-5.1013,0,0,0,0,0,-5.1105,-5.113,-5.1114,-5.1166,-5.1169,-5.1146,-5.1158,-5.1137,-5.1138,-5.1139,-5.113,-5.1133,-5.1152,-5.1166,-5.1183,-5.1245,-5.1243,-5.1276,-5.1288,-5.1298,-5.1305,-5.1337,-5.1352,-5.1196,-5.1196,-5.1196,0,0,-5.1152,-5.1146,-5.1164,-5.1181,-5.1181,-5.1207,-5.1148,-5.1178,-5.1197,-5.1144,-5.1184,-5.1178,-5.1179,-5.1232,-5.1255,-5.123,-5.1347,-5.1306,-5.1314,-5.1316,-5.1345,-5.136,-5.1373,-5.1201,-5.12,-5.1199,0,0,-5.1251,-5.125,-5.1292,-5.1293,-5.1294,-5.1278,-5.1289,-5.1281,-5.1274,-5.1315,-5.1275,-5.1297,-5.1331,-5.1333,-5.1339,-5.1438,-5.1407,-5.1445,-5.1506,-5.1538,-5.155,-5.1561,-5.1596,-5.1609,-5.1452,-5.1452,-5.1452,0,-5.1309,-5.1348,-5.1318,-5.1351,-5.1359,-5.1312,-5.1354,-5.1356,-5.1363,-5.1369,-5.1341,-5.1383,-5.138,-5.1433,-5.1457,-5.1463,-5.1473,-5.1445,-5.1551,-5.1561,-5.1571,-5.1604,-5.1617,-5.1457,-5.1456,-5.1456,-5.1455,0,-5.1419,-5.1446,-5.148,-5.1488,-5.15,-5.1537,-5.1513,-5.1528,-5.1506,-5.1493,-5.1535,-5.153,-5.1545,-5.1556,-5.1534,-5.1606,-5.159,-5.1557,-5.1507,-5.1591,-5.1621,-5.1634,-5.1463,-5.1462,-5.146,-5.1459,0,0,-5.1564,-5.1554,-5.1567,-5.1569,-5.1566,-5.1586,-5.1622,-5.1636,-5.165,-5.1656,-5.1684,-5.1714,-5.1683,-5.169,-5.1668,-5.1696,-5.1775,-5.1659,-5.1659,-5.1681,-5.1852,-5.1877,-5.1892,-5.1754,-5.1756,-5.1758,-5.1852,0,-5.166,-5.172,-5.1693,-5.1756,-5.178,-5.1735,-5.1766,-5.1767,-5.1756,-5.1775,-5.1763,-5.1784,-5.1743,-5.1746,-5.1772,-5.176,-5.1808,-5.1752,-5.1779,-5.1781,-5.178,-5.1908,-5.1934,-5.2024,-5.1864,-5.1866,-5.1867,0,-5.1779,-5.179,-5.1855,-5.1847,-5.1856,-5.1884,-5.1895,-5.1914,-5.1914,-5.1904,-5.1911,-5.1883,-5.1916,-5.1867,-5.1912,-5.1875,-5.1884,-5.188,-5.1883,-5.1884,-5.1829,-5.1912,-5.2051,-5.2065,-5.1886,-5.1884,-5.1883,0,-5.1878,-5.1909,-5.1951,-5.1955,-5.1947,-5.1967,-5.1965,-5.1962,-5.1973,-5.1982,-5.1988,-5.2002,-5.2009,-5.202,-5.1996,-5.1962,-5.2045,-5.1993,-5.2037,-5.2038,-5.2056,-5.2055,-5.2199,-5.2063,-5.2063,-5.2063,-5.2063,0,-5.1988,-5.2029,-5.1995,-5.2022,-5.2066,-5.2036,-5.2081,-5.2073,-5.2072,-5.2095,-5.2057,-5.208,-5.2047,-5.2067,-5.2048,-5.2089,-5.2092,-5.2085,-5.208,-5.2088,-5.2089,-5.2094,-5.2087,-5.2066,-5.2066,-5.2065,-5.2064,0,-5.2106,-5.2085,-5.2128,-5.2117,-5.2115,-5.2148,-5.2138,-5.2162,-5.2148,-5.2178,-5.2184,-5.2162,-5.2183,-5.2161,-5.218,-5.2168,-5.2222,-5.2208,-5.2222,-5.2218,-5.2263,-5.2259,-5.2414,-5.2432,-5.2286,-5.2287,-5.2288,0,-5.2177,-5.2207,-5.2199,-5.2212,-5.2212,-5.2234,-5.2244,-5.2215,-5.2227,-5.2229,-5.2253,-5.227,-5.2283,-5.2319,-5.2305,-5.232,-5.2305,-5.2358,-5.2307,-5.2315,-5.2305,-5.2304,-5.2307,-5.2369,-5.2371,-5.2372,-5.2373,0,-5.2305,-5.2293,-5.2309,-5.2322,-5.2335,-5.2344,-5.2349,-5.2362,-5.2332,-5.2347,-5.2368,-5.2378,-5.2398,-5.2416,-5.2427,-5.2424,-5.2394,-5.2389,-5.24,-5.2409,-5.2416,-5.2413,-5.225,-5.2386,-5.2385,-5.2384,-5.2383,-5.2383,-5.2401,-5.2426,-5.2424,-5.2443,-5.2444,-5.2451,-5.2472,-5.2461,-5.2478,-5.2492,-5.2473,-5.25,-5.2498,-5.2509,-5.251,-5.253,-5.2507,-5.2523,-5.2527,-5.2531,-5.2538,-5.2414,-5.2532,-5.2531,-5.2531,-5.2531,-5.253,0,-5.2527,-5.2523,-5.2541,-5.255,-5.2565,-5.2536,-5.254,-5.2555,-5.2578,-5.258,-5.2593,-5.2617,-5.2634,-5.2622,-5.2636,-5.2655,-5.2641,-5.2659,-5.2658,-5.2657,-5.2557,-5.2546,-5.267,-5.267,-5.267,-5.267,-5.267,-5.267,-5.2594,-5.2635,-5.2623,-5.2663,-5.2659,-5.2684,-5.2689,-5.2695,-5.2696,-5.2724,-5.2738,-5.273,-5.2726,-5.274,-5.2754,-5.275,-5.2757,-5.278,-5.2771,-5.2678,-5.2664,-5.2651,-5.2641,-5.2782,-5.2782,-5.2869,-5.287,-5.2871]}]]